Location: Bruderhein
(53.8035°N, 112.9265°W)
Time: 13:15:14
(UTC+00:00)

KKS-1 - Visible Passes

Search period start: 01 April 2023 00:00
Search period end: 11 April 2023 00:00
Orbit: 632 x 646 km, 98.2° (Epoch: 01 April)

Date Brightness Start Highest point End Pass type
(mag) Time Alt. Az. Time Alt. Az. Time Alt. Az.
01 Apr ? 06:02:47 10° NNE 06:05:05 29° NE 06:05:05 29° NE visible
01 Apr ? 07:39:50 10° N 07:42:39 22° NW 07:42:39 22° NW visible
02 Apr ? 04:50:58 10° NE 04:51:07 10° ENE 04:51:07 10° ENE visible
02 Apr ? 06:25:59 10° NNE 06:28:41 37° NNE 06:28:41 37° NNE visible
02 Apr ? 08:03:35 10° NNW 08:06:15 16° NW 08:06:15 16° NW visible
03 Apr ? 05:13:22 10° NE 05:14:43 16° NE 05:14:43 16° NE visible
03 Apr ? 06:49:17 10° N 06:52:17 39° NNW 06:52:17 39° NNW visible
03 Apr ? 08:27:48 10° NNW 08:29:12 11° NW 08:29:51 11° WNW visible
04 Apr ? 05:36:11 10° NNE 05:38:19 23° NE 05:38:19 23° NE visible
04 Apr ? 07:12:40 10° N 07:15:53 33° NW 07:15:53 33° NW visible
05 Apr ? 05:59:12 10° NNE 06:01:54 34° NE 06:01:54 34° NE visible
05 Apr ? 07:36:10 10° N 07:39:28 25° NW 07:39:28 25° NW visible
06 Apr ? 04:47:34 10° ENE 04:47:54 11° ENE 04:47:54 11° ENE visible
06 Apr ? 06:22:21 10° NNE 06:25:29 46° NNE 06:25:29 46° NNE visible
06 Apr ? 07:59:49 10° NNW 08:02:44 17° NW 08:03:03 17° WNW visible
07 Apr ? 05:09:49 10° NE 05:11:29 17° ENE 05:11:29 17° ENE visible
07 Apr ? 06:45:36 10° N 06:49:03 49° NNW 06:49:03 49° NNW visible
07 Apr ? 08:23:53 10° NNW 08:25:37 12° NW 08:26:37 11° WNW visible
08 Apr ? 05:32:34 10° NNE 05:35:03 25° ENE 05:35:03 25° ENE visible
08 Apr ? 07:08:57 10° N 07:12:37 38° NW 07:12:37 38° NW visible
09 Apr ? 05:55:32 10° NNE 05:58:37 38° NE 05:58:37 38° NE visible
09 Apr ? 07:32:24 10° N 07:36:06 27° WNW 07:36:11 27° WNW visible
10 Apr ? 04:44:10 10° ENE 04:44:36 11° ENE 04:44:36 11° ENE visible
10 Apr ? 06:18:38 10° NNE 06:22:10 55° NNE 06:22:10 55° NNE visible
10 Apr ? 07:56:00 10° NNW 07:59:03 19° NW 07:59:44 18° WNW visible
